,,Stat5,,Stat1,,Stat2,,Stat3,,Stat4,,Wind1,,Wind1,
time,status,PA1M_AVG,status,PR1M_SUM,status,RH1M_AVG,status,SR1M_AVG,status,TA1M_AVG,status,W1dAve1m,status,W1sAve1m,
2001-05-02, 00:00:00,VALID,918.612,VALID,0,VALID,92.2956,VALID,0,VALID,19.9398,VALID,92,VALID,0.23088,
2001-05-02, 00:01:00,VALID,918.578,VALID,0,VALID,92.5067,VALID,-0.0339617,VALID,19.9505,VALID,92,VALID,0.412109,
2001-05-02, 00:02:00,VALID,918.569,VALID,0,VALID,92.4126,VALID,-0.0509425,VALID,19.905,VALID,64,VALID,0.430689,
2001-05-02, 00:03:00,VALID,918.557,VALID,0,VALID,92.6885,VALID,-0.0169808,VALID,19.8632,VALID,41,VALID,0.29852,
2001-05-02, 00:04:00,VALID,918.544,VALID,0,VALID,92.8259,VALID,0,VALID,19.8729,VALID,19,VALID,0.635851,
2001-05-02, 00:05:00,VALID,918.546,VALID,0,VALID,92.438,VALID,-0.0169808,VALID,19.9535,VALID,34,VALID,0.478906,
2001-05-02, 00:06:00,VALID,918.531,VALID,0,VALID,91.4068,VALID,-0.0169808,VALID,19.9892,VALID,79,VALID,0.0847656,
2001-05-02, 00:07:00,VALID,918.507,VALID,0,VALID,91.7895,VALID,0,VALID,19.9177,VALID,84,VALID,0.584704,
2001-05-02, 00:08:00,VALID,918.466,VALID,0,VALID,91.923,VALID,-0.0169808,VALID,19.9373,VALID,69,VALID,0.508003,
2001-05-02, 00:09:00,VALID,918.445,VALID,0,VALID,91.6127,VALID,-0.0169808,VALID,19.9306,VALID,67,VALID,0.725361,
2001-05-02, 00:10:00,VALID,918.391,VALID,0,VALID,91.4538,VALID,0,VALID,19.9465,VALID,104,VALID,0.153505,
2001-05-02, 00:11:00,VALID,918.372,VALID,0,VALID,91.6687,VALID,0,VALID,19.9567,VALID,101,VALID,0.0807977,
2001-05-02, 00:12:00,VALID,918.35,VALID,0,VALID,91.6674,VALID,-0.0339617,VALID,19.9597,VALID,68,VALID,0.1894,
2001-05-02, 00:13:00,VALID,918.338,VALID,0,VALID,91.6636,VALID,0,VALID,19.9465,VALID,66,VALID,0,
2001-05-02, 00:14:00,VALID,918.323,VALID,0,VALID,91.7933,VALID,-0.0169808,VALID,19.9604,VALID,66,VALID,0,
2001-05-02, 00:15:00,VALID,918.308,VALID,0,VALID,91.7615,VALID,-0.0339617,VALID,19.9376,VALID,63,VALID,0.14383,
2001-05-02, 00:16:00,VALID,918.315,VALID,0,VALID,91.8976,VALID,0,VALID,19.9279,VALID,59,VALID,0.0132212,
2001-05-02, 00:17:00,VALID,918.299,VALID,0,VALID,91.5288,VALID,-0.0339617,VALID,19.9244,VALID,88,VALID,0,
2001-05-02, 00:18:00,VALID,918.291,VALID,0,VALID,91.6242,VALID,-0.0339617,VALID,19.8883,VALID,100,VALID,0,
2001-05-02, 00:19:00,VALID,918.287,VALID,0,VALID,91.9065,VALID,0,VALID,19.8468,VALID,103,VALID,0,
2001-05-02, 00:20:00,VALID,918.279,VALID,0,VALID,92.3516,VALID,0,VALID,19.818,VALID,103,VALID,0,
2001-05-02, 00:21:00,VALID,918.262,VALID,0,VALID,92.3808,VALID,0,VALID,19.8145,VALID,103,VALID,0,
2001-05-02, 00:22:00,VALID,918.247,VALID,0,VALID,92.3554,VALID,-0.0169808,VALID,19.8083,VALID,103,VALID,0,
2001-05-02, 00:23:00,VALID,918.227,VALID,0,VALID,92.3159,VALID,0,VALID,19.7917,VALID,103,VALID,0,
2001-05-02, 00:24:00,VALID,918.213,VALID,0,VALID,92.424,VALID,0.0679233,VALID,19.7782,VALID,103,VALID,0,
2001-05-02, 00:25:00,VALID,918.196,VALID,0,VALID,92.4876,VALID,0.0849042,VALID,19.7681,VALID,103,VALID,0,
2001-05-02, 00:26:00,VALID,918.194,VALID,0,VALID,92.4151,VALID,0.101885,VALID,19.7743,VALID,103,VALID,0,
2001-05-02, 00:27:00,VALID,918.156,VALID,0,VALID,92.4113,VALID,0.0679233,VALID,19.7678,VALID,129,VALID,0,
2001-05-02, 00:28:00,VALID,918.146,VALID,0,VALID,92.4533,VALID,0.101885,VALID,19.7678,VALID,143,VALID,0,
2001-05-02, 00:29:00,VALID,918.13,VALID,0,VALID,92.4456,VALID,0.101885,VALID,19.771,VALID,143,VALID,0,
2001-05-02, 00:30:00,VALID,918.128,VALID,0,VALID,92.1481,VALID,0.101885,VALID,19.7228,VALID,143,VALID,0,
2001-05-02, 00:31:00,VALID,918.103,VALID,0,VALID,93.0255,VALID,0.101885,VALID,19.6453,VALID,150,VALID,0,
2001-05-02, 00:32:00,VALID,918.081,VALID,0,VALID,93.4922,VALID,0.101885,VALID,19.6063,VALID,153,VALID,0,
2001-05-02, 00:33:00,VALID,918.049,VALID,0,VALID,93.5926,VALID,0.0849042,VALID,19.5802,VALID,158,VALID,0,
2001-05-02, 00:34:00,VALID,918.035,VALID,0,VALID,93.5812,VALID,0.0679233,VALID,19.5939,VALID,159,VALID,0,
2001-05-02, 00:35:00,VALID,918.009,VALID,0,VALID,93.4998,VALID,0.0849042,VALID,19.6165,VALID,167,VALID,0,
2001-05-02, 00:36:00,VALID,918.002,VALID,0,VALID,93.3269,VALID,0.0849042,VALID,19.6227,VALID,170,VALID,0,
2001-05-02, 00:37:00,VALID,917.994,VALID,0,VALID,93.351,VALID,0.0509425,VALID,19.6359,VALID,186,VALID,0,
2001-05-02, 00:38:00,VALID,917.97,VALID,0,VALID,93.6893,VALID,0.0509425,VALID,19.6294,VALID,200,VALID,0.33683,
2001-05-02, 00:39:00,VALID,917.94,VALID,0,VALID,93.9614,VALID,0,VALID,19.618,VALID,203,VALID,0.42652,
2001-05-02, 00:40:00,VALID,917.928,VALID,0,VALID,94.1216,VALID,0,VALID,19.5789,VALID,199,VALID,0.497472,
2001-05-02, 00:41:00,VALID,917.91,VALID,0,VALID,94.5171,VALID,-0.0509425,VALID,19.527,VALID,202,VALID,0.212838,
2001-05-02, 00:42:00,VALID,917.901,VALID,0,VALID,94.5273,VALID,-0.0339617,VALID,19.5116,VALID,176,VALID,0.0981445,
2001-05-02, 00:43:00,VALID,917.917,VALID,0,VALID,94.3492,VALID,-0.0169808,VALID,19.4433,VALID,176,VALID,0,
2001-05-02, 00:44:00,VALID,917.896,VALID,0,VALID,94.4967,VALID,-0.0169808,VALID,19.4139,VALID,176,VALID,0,
2001-05-02, 00:45:00,VALID,917.897,VALID,0,VALID,94.8477,VALID,0,VALID,19.4075,VALID,176,VALID,0,
2001-05-02, 00:46:00,VALID,917.898,VALID,0,VALID,94.9011,VALID,-0.0169808,VALID,19.411,VALID,176,VALID,0,
2001-05-02, 00:47:00,VALID,917.871,VALID,0,VALID,94.9215,VALID,-0.0339617,VALID,19.3787,VALID,203,VALID,0.0555321,
2001-05-02, 00:48:00,VALID,917.834,VALID,0,VALID,95.0791,VALID,-0.0679233,VALID,19.3724,VALID,216,VALID,0.0113076,
2001-05-02, 00:49:00,VALID,917.794,VALID,0,VALID,95.1198,VALID,-0.0169808,VALID,19.3628,VALID,216,VALID,0,
2001-05-02, 00:50:00,VALID,917.782,VALID,0,VALID,94.9405,VALID,-0.0339617,VALID,19.3436,VALID,216,VALID,0,
2001-05-02, 00:51:00,VALID,917.766,VALID,0,VALID,94.9761,VALID,-0.0679233,VALID,19.3212,VALID,216,VALID,0,
2001-05-02, 00:52:00,VALID,917.75,VALID,0,VALID,95.0817,VALID,-0.0339617,VALID,19.3372,VALID,218,VALID,0,
2001-05-02, 00:53:00,VALID,917.733,VALID,0,VALID,94.9609,VALID,-0.0339617,VALID,19.3732,VALID,218,VALID,0,
2001-05-02, 00:54:00,VALID,917.713,VALID,0,VALID,94.8007,VALID,-0.0169808,VALID,19.4045,VALID,245,VALID,0,
2001-05-02, 00:55:00,VALID,917.696,VALID,0,VALID,94.7053,VALID,0,VALID,19.4271,VALID,334,VALID,0.211538,
2001-05-02, 00:56:00,VALID,917.684,VALID,0,VALID,94.4077,VALID,0,VALID,19.5044,VALID,351,VALID,0.431027,
2001-05-02, 00:57:00,VALID,917.657,VALID,0,VALID,93.6397,VALID,0,VALID,19.5727,VALID,334,VALID,0.136824,
2001-05-02, 00:58:00,VALID,917.648,VALID,0,VALID,93.4985,VALID,0.0339617,VALID,19.5628,VALID,347,VALID,0.177619,
2001-05-02, 00:59:00,VALID,917.626,VALID,0,VALID,93.4489,VALID,0,VALID,19.5794,VALID,46,VALID,0.363809,
2001-05-02, 01:00:00,VALID,917.599,VALID,0,VALID,93.0624,VALID,0,VALID,19.5633,VALID,116,VALID,0.27426,
2001-05-02, 01:01:00,VALID,917.585,VALID,0,VALID,93.3905,VALID,0,VALID,19.5081,VALID,116,VALID,0,
2001-05-02, 01:02:00,VALID,917.581,VALID,0,VALID,93.8139,VALID,0,VALID,19.4915,VALID,105,VALID,0.0104911,
2001-05-02, 01:03:00,VALID,917.565,VALID,0,VALID,93.7579,VALID,0,VALID,19.5176,VALID,105,VALID,0.398226,
2001-05-02, 01:04:00,VALID,917.55,VALID,0,VALID,93.4375,VALID,0.0169808,VALID,19.5273,VALID,118,VALID,0.693244,
2001-05-02, 01:05:00,VALID,917.549,VALID,0,VALID,93.3498,VALID,-0.0169808,VALID,19.5305,VALID,121,VALID,0.89147,
2001-05-02, 01:06:00,VALID,917.54,VALID,0,VALID,93.1272,VALID,0.0169808,VALID,19.5369,VALID,99,VALID,0.881836,
2001-05-02, 01:07:00,VALID,917.553,VALID,0,VALID,93.009,VALID,0,VALID,19.5432,VALID,96,VALID,0.470753,
2001-05-02, 01:08:00,VALID,917.542,VALID,0,VALID,92.9365,VALID,-0.0169808,VALID,19.5466,VALID,93,VALID,0.0308036,
2001-05-02, 01:09:00,VALID,917.533,VALID,0,VALID,93.0357,VALID,-0.0849042,VALID,19.5384,VALID,93,VALID,0.0500422,
2001-05-02, 01:10:00,VALID,917.527,VALID,0,VALID,93.1628,VALID,-0.101885,VALID,19.5384,VALID,93,VALID,0.284697,
2001-05-02, 01:11:00,VALID,917.518,VALID,0,VALID,93.1921,VALID,-0.0679233,VALID,19.5285,VALID,93,VALID,0.250633,
2001-05-02, 01:12:00,VALID,917.511,VALID,0,VALID,93.173,VALID,-0.101885,VALID,19.5193,VALID,93,VALID,0.0988898,
2001-05-02, 01:13:00,VALID,917.496,VALID,0,VALID,93.3269,VALID,-0.101885,VALID,19.4865,VALID,93,VALID,0,
2001-05-02, 01:14:00,VALID,917.477,VALID,0,VALID,93.4362,VALID,-0.0339617,VALID,19.4544,VALID,93,VALID,0,
2001-05-02, 01:15:00,VALID,917.47,VALID,0,VALID,93.7376,VALID,-0.0679233,VALID,19.4224,VALID,95,VALID,0,
2001-05-02, 01:16:00,VALID,917.449,VALID,0,VALID,93.6931,VALID,-0.101885,VALID,19.3995,VALID,93,VALID,0,
2001-05-02, 01:17:00,VALID,917.441,VALID,0,VALID,93.9016,VALID,-0.101885,VALID,19.364,VALID,93,VALID,0,
2001-05-02, 01:18:00,VALID,917.418,VALID,0,VALID,94.0466,VALID,-0.101885,VALID,19.3441,VALID,93,VALID,0,
2001-05-02, 01:19:00,VALID,917.4,VALID,0,VALID,94.1496,VALID,-0.101885,VALID,19.3414,VALID,93,VALID,0,
2001-05-02, 01:20:00,VALID,917.41,VALID,0,VALID,94.2259,VALID,-0.0849042,VALID,19.3347,VALID,88,VALID,0,
2001-05-02, 01:21:00,VALID,917.39,VALID,0,VALID,94.2831,VALID,-0.101885,VALID,19.3518,VALID,82,VALID,0.0690456,
2001-05-02, 01:22:00,VALID,917.371,VALID,0,VALID,94.1801,VALID,-0.101885,VALID,19.3963,VALID,85,VALID,0.516544,
2001-05-02, 01:23:00,VALID,917.339,VALID,0,VALID,93.6422,VALID,-0.0679233,VALID,19.4902,VALID,99,VALID,0.456926,
2001-05-02, 01:24:00,VALID,917.326,VALID,0,VALID,93.0013,VALID,-0.0679233,VALID,19.5322,VALID,104,VALID,0.263363,
2001-05-02, 01:25:00,VALID,917.305,VALID,0,VALID,92.9263,VALID,-0.0849042,VALID,19.5128,VALID,104,VALID,0.348067,
2001-05-02, 01:26:00,VALID,917.311,VALID,0,VALID,93.2061,VALID,-0.101885,VALID,19.4865,VALID,80,VALID,0.132366,
2001-05-02, 01:27:00,VALID,917.298,VALID,0,VALID,93.4197,VALID,-0.0849042,VALID,19.4833,VALID,60,VALID,0.213049,
2001-05-02, 01:28:00,VALID,917.29,VALID,0,VALID,93.4769,VALID,-0.101885,VALID,19.4932,VALID,55,VALID,0,
2001-05-02, 01:29:00,VALID,917.274,VALID,0,VALID,93.4095,VALID,-0.101885,VALID,19.5225,VALID,100,VALID,0.184966,
2001-05-02, 01:30:00,VALID,917.259,VALID,0,VALID,93.2735,VALID,-0.0849042,VALID,19.4902,VALID,120,VALID,0.0541992,
2001-05-02, 01:31:00,VALID,917.254,VALID,0,VALID,93.4528,VALID,-0.0849042,VALID,19.4611,VALID,116,VALID,0.20653,
2001-05-02, 01:32:00,VALID,917.242,VALID,0,VALID,93.6702,VALID,-0.101885,VALID,19.4549,VALID,114,VALID,0.071875,
2001-05-02, 01:33:00,VALID,917.238,VALID,0,VALID,93.8699,VALID,-0.101885,VALID,19.4678,VALID,17,VALID,0.298775,
2001-05-02, 01:34:00,VALID,917.219,VALID,0,VALID,94.0542,VALID,-0.101885,VALID,19.4962,VALID,319,VALID,0.194623,
2001-05-02, 01:35:00,VALID,917.211,VALID,0,VALID,93.6651,VALID,-0.101885,VALID,19.5066,VALID,325,VALID,0.0622889,
2001-05-02, 01:36:00,VALID,917.204,VALID,0,VALID,93.4286,VALID,-0.0849042,VALID,19.4606,VALID,358,VALID,0.0986842,
2001-05-02, 01:37:00,VALID,917.205,VALID,0,VALID,93.5494,VALID,-0.0679233,VALID,19.4512,VALID,85,VALID,0.457031,
2001-05-02, 01:38:00,VALID,917.199,VALID,0,VALID,93.4197,VALID,-0.0849042,VALID,19.4514,VALID,91,VALID,0.359375,
2001-05-02, 01:39:00,VALID,917.19,VALID,0,VALID,93.482,VALID,0,VALID,19.4115,VALID,91,VALID,0.153716,
2001-05-02, 01:40:00,VALID,917.185,VALID,0,VALID,93.716,VALID,0,VALID,19.4047,VALID,91,VALID,0,
2001-05-02, 01:41:00,VALID,917.175,VALID,0,VALID,93.7236,VALID,0,VALID,19.4013,VALID,91,VALID,0,
2001-05-02, 01:42:00,VALID,917.167,VALID,0,VALID,93.7885,VALID,0,VALID,19.398,VALID,91,VALID,0,
2001-05-02, 01:43:00,VALID,917.165,VALID,0,VALID,93.7274,VALID,0,VALID,19.3951,VALID,91,VALID,0.0797276,
2001-05-02, 01:44:00,VALID,917.141,VALID,0,VALID,93.716,VALID,0,VALID,19.3628,VALID,91,VALID,0.0696429,
2001-05-02, 01:45:00,VALID,917.15,VALID,0,VALID,93.9042,VALID,0,VALID,19.3632,VALID,113,VALID,0.429265,
2001-05-02, 01:46:00,VALID,917.142,VALID,0,VALID,93.8673,VALID,0,VALID,19.3757,VALID,118,VALID,0.39614,
2001-05-02, 01:47:00,VALID,917.128,VALID,0,VALID,93.7185,VALID,0,VALID,19.3687,VALID,109,VALID,0.117188,
2001-05-02, 01:48:00,VALID,917.116,VALID,0,VALID,93.6791,VALID,0,VALID,19.3752,VALID,105,VALID,0.38528,
2001-05-02, 01:49:00,VALID,917.094,VALID,0,VALID,93.557,VALID,0,VALID,19.4013,VALID,115,VALID,0.292352,
2001-05-02, 01:50:00,VALID,917.089,VALID,0,VALID,93.4413,VALID,0,VALID,19.405,VALID,115,VALID,0.191518,
2001-05-02, 01:51:00,VALID,917.082,VALID,0,VALID,93.4057,VALID,0.0169808,VALID,19.3983,VALID,115,VALID,0.374367,
2001-05-02, 01:52:00,VALID,917.079,VALID,0,VALID,93.3014,VALID,0,VALID,19.3921,VALID,115,VALID,0.278952,
2001-05-02, 01:53:00,VALID,917.063,VALID,0,VALID,93.421,VALID,-0.0169808,VALID,19.3598,VALID,115,VALID,0.234164,
2001-05-02, 01:54:00,VALID,917.059,VALID,0,VALID,93.4477,VALID,-0.0509425,VALID,19.3272,VALID,104,VALID,0.244385,
2001-05-02, 01:55:00,VALID,917.028,VALID,0,VALID,93.7452,VALID,-0.0169808,VALID,19.3076,VALID,76,VALID,0.191506,
2001-05-02, 01:56:00,VALID,917.014,VALID,0,VALID,93.8876,VALID,0,VALID,19.3108,VALID,62,VALID,0.01875,
2001-05-02, 01:57:00,VALID,917.003,VALID,0,VALID,93.9487,VALID,0,VALID,19.3337,VALID,54,VALID,0.336571,
2001-05-02, 01:58:00,VALID,916.995,VALID,0,VALID,93.8648,VALID,0,VALID,19.3692,VALID,54,VALID,0.171875,
2001-05-02, 01:59:00,VALID,916.983,VALID,0,VALID,93.777,VALID,-0.0169808,VALID,19.3849,VALID,54,VALID,0.112965,
2001-05-02, 02:00:00,VALID,916.972,VALID,0,VALID,93.8711,VALID,0,VALID,19.3883,VALID,54,VALID,0.259046,
2001-05-02, 02:01:00,VALID,916.935,VALID,0,VALID,94.0822,VALID,0,VALID,19.411,VALID,54,VALID,0.0219984,
2001-05-02, 02:02:00,VALID,916.914,VALID,0,VALID,93.9411,VALID,0,VALID,19.401,VALID,54,VALID,0.0877232,
2001-05-02, 02:03:00,VALID,916.897,VALID,0,VALID,94.2297,VALID,-0.0339617,VALID,19.399,VALID,54,VALID,0.0320946,
2001-05-02, 02:04:00,VALID,916.87,VALID,0,VALID,94.3276,VALID,-0.0169808,VALID,19.4308,VALID,67,VALID,0.0222886,
2001-05-02, 02:05:00,VALID,916.847,VALID,0,VALID,94.1572,VALID,0,VALID,19.4433,VALID,89,VALID,0,
2001-05-02, 02:06:00,VALID,916.824,VALID,0,VALID,94.2793,VALID,-0.0169808,VALID,19.4368,VALID,79,VALID,0.000976563,
2001-05-02, 02:07:00,VALID,916.801,VALID,0,VALID,94.2526,VALID,-0.0679233,VALID,19.453,VALID,51,VALID,0.0651042,
2001-05-02, 02:08:00,VALID,916.791,VALID,0,VALID,93.66,VALID,0,VALID,19.4107,VALID,51,VALID,0,
2001-05-02, 02:09:00,VALID,916.782,VALID,0,VALID,93.8495,VALID,-0.0169808,VALID,19.3754,VALID,51,VALID,0,
2001-05-02, 02:10:00,VALID,916.778,VALID,0,VALID,94.1038,VALID,0,VALID,19.3526,VALID,51,VALID,0,
2001-05-02, 02:11:00,VALID,916.776,VALID,0,VALID,94.2513,VALID,0,VALID,19.3464,VALID,51,VALID,0.0116132,
2001-05-02, 02:12:00,VALID,916.779,VALID,0,VALID,94.2526,VALID,-0.0169808,VALID,19.3464,VALID,51,VALID,0.000205592,
2001-05-02, 02:13:00,VALID,916.771,VALID,0,VALID,94.1521,VALID,-0.0169808,VALID,19.3498,VALID,78,VALID,0.248355,
2001-05-02, 02:14:00,VALID,916.774,VALID,0,VALID,94.0568,VALID,0,VALID,19.363,VALID,81,VALID,0.197321,
2001-05-02, 02:15:00,VALID,916.773,VALID,0,VALID,93.8978,VALID,-0.0339617,VALID,19.366,VALID,84,VALID,0.316301,
2001-05-02, 02:16:00,VALID,916.764,VALID,0,VALID,93.6511,VALID,-0.0339617,VALID,19.3279,VALID,84,VALID,0.4375,
2001-05-02, 02:17:00,VALID,916.76,VALID,0,VALID,93.9283,VALID,-0.0679233,VALID,19.2631,VALID,84,VALID,0.54962,
2001-05-02, 02:18:00,VALID,916.747,VALID,0,VALID,94.0924,VALID,0,VALID,19.2077,VALID,92,VALID,0.595215,
2001-05-02, 02:19:00,VALID,916.755,VALID,0,VALID,94.3264,VALID,0,VALID,19.1722,VALID,82,VALID,0.707332,
2001-05-02, 02:20:00,VALID,916.741,VALID,0,VALID,94.3594,VALID,0,VALID,19.1687,VALID,79,VALID,0.61183,
2001-05-02, 02:21:00,VALID,916.743,VALID,0,VALID,94.4713,VALID,-0.0509425,VALID,19.1657,VALID,84,VALID,0.659206,
2001-05-02, 02:22:00,VALID,916.74,VALID,0,VALID,94.5641,VALID,-0.0169808,VALID,19.1881,VALID,83,VALID,0.502528,
2001-05-02, 02:23:00,VALID,916.733,VALID,0,VALID,94.4294,VALID,-0.0339617,VALID,19.2209,VALID,83,VALID,0.289063,
2001-05-02, 02:24:00,VALID,916.728,VALID,0,VALID,94.3073,VALID,0.0679233,VALID,19.2415,VALID,80,VALID,0.138775,
2001-05-02, 02:25:00,VALID,916.72,VALID,0,VALID,94.2755,VALID,0.0509425,VALID,19.2773,VALID,80,VALID,0.278577,
2001-05-02, 02:26:00,VALID,916.713,VALID,0,VALID,94.1331,VALID,0.101885,VALID,19.3096,VALID,85,VALID,0.378348,
2001-05-02, 02:27:00,VALID,916.686,VALID,0,VALID,94.0479,VALID,0.0849042,VALID,19.3389,VALID,86,VALID,0.34016,
2001-05-02, 02:28:00,VALID,916.673,VALID,0,VALID,93.8953,VALID,0.0849042,VALID,19.3551,VALID,79,VALID,0.241498,
2001-05-02, 02:29:00,VALID,916.667,VALID,0,VALID,93.8851,VALID,0.0169808,VALID,19.3451,VALID,68,VALID,0.331503,
2001-05-02, 02:30:00,VALID,916.654,VALID,0,VALID,93.8686,VALID,0.0679233,VALID,19.3645,VALID,77,VALID,0.233643,
2001-05-02, 02:31:00,VALID,916.641,VALID,0,VALID,93.7618,VALID,0.0509425,VALID,19.3779,VALID,85,VALID,0.0845353,
2001-05-02, 02:32:00,VALID,916.64,VALID,0,VALID,93.6867,VALID,0.0169808,VALID,19.3715,VALID,85,VALID,0.000669643,
2001-05-02, 02:33:00,VALID,916.649,VALID,0,VALID,93.7757,VALID,0.0679233,VALID,19.3623,VALID,85,VALID,0.00422297,
2001-05-02, 02:34:00,VALID,916.647,VALID,0,VALID,93.8737,VALID,0.0679233,VALID,19.3322,VALID,85,VALID,0,
2001-05-02, 02:35:00,VALID,916.654,VALID,0,VALID,94.1369,VALID,0.101885,VALID,19.3255,VALID,85,VALID,0,
2001-05-02, 02:36:00,VALID,916.644,VALID,0,VALID,94.2043,VALID,0.101885,VALID,19.3417,VALID,85,VALID,0,
2001-05-02, 02:37:00,VALID,916.634,VALID,0,VALID,94.1293,VALID,0.0509425,VALID,19.3292,VALID,88,VALID,0.268663,
2001-05-02, 02:38:00,VALID,916.624,VALID,0,VALID,94.1229,VALID,0.0339617,VALID,19.3359,VALID,89,VALID,0.36317,
2001-05-02, 02:39:00,VALID,916.616,VALID,0,VALID,93.8597,VALID,-0.0509425,VALID,19.3595,VALID,88,VALID,0.619088,
2001-05-02, 02:40:00,VALID,916.605,VALID,0,VALID,93.7262,VALID,-0.0169808,VALID,19.3625,VALID,84,VALID,0.740119,
2001-05-02, 02:41:00,VALID,916.608,VALID,0,VALID,93.6143,VALID,-0.0169808,VALID,19.3826,VALID,83,VALID,0.731841,
2001-05-02, 02:42:00,VALID,916.614,VALID,0,VALID,93.6448,VALID,-0.0339617,VALID,19.3724,VALID,87,VALID,0.597412,
2001-05-02, 02:43:00,VALID,916.617,VALID,0,VALID,93.7363,VALID,-0.0169808,VALID,19.3501,VALID,87,VALID,0.701723,
2001-05-02, 02:44:00,VALID,916.611,VALID,0,VALID,93.7719,VALID,-0.0509425,VALID,19.3399,VALID,77,VALID,0.630134,
2001-05-02, 02:45:00,VALID,916.591,VALID,0,VALID,93.7592,VALID,-0.0339617,VALID,19.3404,VALID,91,VALID,0.501267,
2001-05-02, 02:46:00,VALID,916.587,VALID,0,VALID,93.8075,VALID,-0.0169808,VALID,19.3337,VALID,92,VALID,0.58318,
2001-05-02, 02:47:00,VALID,916.565,VALID,0,VALID,93.8228,VALID,-0.0169808,VALID,19.3332,VALID,96,VALID,0.505279,
2001-05-02, 02:48:00,VALID,916.551,VALID,0,VALID,93.8864,VALID,-0.0169808,VALID,19.3302,VALID,97,VALID,0.560855,
2001-05-02, 02:49:00,VALID,916.544,VALID,0,VALID,93.8915,VALID,-0.0509425,VALID,19.3431,VALID,97,VALID,0.411184,
2001-05-02, 02:50:00,VALID,916.535,VALID,0,VALID,93.8915,VALID,-0.0509425,VALID,19.3535,VALID,113,VALID,0.421875,
2001-05-02, 02:51:00,VALID,916.534,VALID,0,VALID,93.9016,VALID,-0.0679233,VALID,19.3436,VALID,113,VALID,0.404139,
2001-05-02, 02:52:00,VALID,916.542,VALID,0,VALID,93.9779,VALID,-0.0679233,VALID,19.3307,VALID,113,VALID,0.496783,
2001-05-02, 02:53:00,VALID,916.552,VALID,0,VALID,94.0212,VALID,0.0169808,VALID,19.2753,VALID,111,VALID,0.598395,
2001-05-02, 02:54:00,VALID,916.549,VALID,0,VALID,94.3607,VALID,0.0169808,VALID,19.242,VALID,100,VALID,0.635742,
2001-05-02, 02:55:00,VALID,916.549,VALID,0,VALID,94.5044,VALID,0.0339617,VALID,19.2197,VALID,95,VALID,0.559696,
2001-05-02, 02:56:00,VALID,916.565,VALID,0,VALID,94.6074,VALID,0,VALID,19.2062,VALID,92,VALID,0.495982,
2001-05-02, 02:57:00,VALID,916.564,VALID,0,VALID,94.5514,VALID,0.0339617,VALID,19.2326,VALID,92,VALID,0.509079,
2001-05-02, 02:58:00,VALID,916.562,VALID,0,VALID,94.3149,VALID,0.0509425,VALID,19.2845,VALID,93,VALID,0.469439,
2001-05-02, 02:59:00,VALID,916.556,VALID,0,VALID,93.9144,VALID,0.0169808,VALID,19.3394,VALID,95,VALID,0.418708,
2001-05-02, 03:00:00,VALID,916.566,VALID,0,VALID,93.6219,VALID,0.0339617,VALID,19.3876,VALID,95,VALID,0.431127,
2001-05-02, 03:01:00,VALID,916.567,VALID,0,VALID,93.51,VALID,0.0339617,VALID,19.4137,VALID,95,VALID,0.58162,
2001-05-02, 03:02:00,VALID,916.565,VALID,0,VALID,93.4744,VALID,0.0509425,VALID,19.4033,VALID,94,VALID,0.68125,
2001-05-02, 03:03:00,VALID,916.596,VALID,0,VALID,93.5189,VALID,0.0679233,VALID,19.3968,VALID,91,VALID,0.722973,
2001-05-02, 03:04:00,VALID,916.616,VALID,0,VALID,93.1311,VALID,0.0339617,VALID,19.4425,VALID,79,VALID,0.904182,
2001-05-02, 03:05:00,VALID,916.617,VALID,0,VALID,92.6313,VALID,0.0679233,VALID,19.5362,VALID,80,VALID,0.82897,
2001-05-02, 03:06:00,VALID,916.628,VALID,0,VALID,92.2193,VALID,0.0339617,VALID,19.5944,VALID,81,VALID,0.477783,
2001-05-02, 03:07:00,VALID,916.651,VALID,0,VALID,91.9332,VALID,0.0509425,VALID,19.652,VALID,81,VALID,0.655048,
2001-05-02, 03:08:00,VALID,916.652,VALID,0,VALID,91.8035,VALID,0.0679233,VALID,19.6687,VALID,81,VALID,0.81317,
2001-05-02, 03:09:00,VALID,916.659,VALID,0,VALID,91.4271,VALID,0,VALID,19.7335,VALID,83,VALID,0.493666,
2001-05-02, 03:10:00,VALID,916.665,VALID,0,VALID,91.5136,VALID,0.0339617,VALID,19.7686,VALID,91,VALID,0.0953585,
2001-05-02, 03:11:00,VALID,916.663,VALID,0,VALID,91.7692,VALID,0.0679233,VALID,19.7467,VALID,77,VALID,0,
2001-05-02, 03:12:00,VALID,916.665,VALID,0,VALID,92.1036,VALID,0.0509425,VALID,19.7134,VALID,60,VALID,0,
2001-05-02, 03:13:00,VALID,916.663,VALID,0,VALID,92.0794,VALID,0.0509425,VALID,19.7427,VALID,53,VALID,0,
2001-05-02, 03:14:00,VALID,916.658,VALID,0,VALID,92.0311,VALID,0.0169808,VALID,19.7618,VALID,53,VALID,0,
2001-05-02, 03:15:00,VALID,916.649,VALID,0,VALID,91.9167,VALID,0.0679233,VALID,19.7778,VALID,53,VALID,0,
2001-05-02, 03:16:00,VALID,916.654,VALID,0,VALID,91.6611,VALID,0.0339617,VALID,19.7949,VALID,72,VALID,0.108686,
2001-05-02, 03:17:00,VALID,916.648,VALID,0,VALID,91.8048,VALID,0.0339617,VALID,19.785,VALID,95,VALID,0.181588,
2001-05-02, 03:18:00,VALID,916.65,VALID,0,VALID,92.0222,VALID,0.0339617,VALID,19.7233,VALID,95,VALID,0.00878906,
2001-05-02, 03:19:00,VALID,916.663,VALID,0,VALID,92.1456,VALID,0.0509425,VALID,19.7042,VALID,94,VALID,0.201723,
2001-05-02, 03:20:00,VALID,916.671,VALID,0,VALID,92.1061,VALID,0.0509425,VALID,19.7067,VALID,92,VALID,0.0430804,
2001-05-02, 03:21:00,VALID,916.663,VALID,0,VALID,92.2994,VALID,0.0849042,VALID,19.7206,VALID,92,VALID,0,
2001-05-02, 03:22:00,VALID,916.66,VALID,0,VALID,92.5932,VALID,0.0339617,VALID,19.6684,VALID,92,VALID,0,
2001-05-02, 03:23:00,VALID,916.674,VALID,0,VALID,92.8042,VALID,0.0169808,VALID,19.5973,VALID,92,VALID,0,
2001-05-02, 03:24:00,VALID,916.676,VALID,0,VALID,93.1234,VALID,-0.0169808,VALID,19.5464,VALID,92,VALID,0,
2001-05-02, 03:25:00,VALID,916.671,VALID,0,VALID,93.3027,VALID,-0.0339617,VALID,19.5275,VALID,92,VALID,0.056949,
2001-05-02, 03:26:00,VALID,916.673,VALID,0,VALID,93.4032,VALID,-0.0169808,VALID,19.482,VALID,92,VALID,0,
2001-05-02, 03:27:00,VALID,916.667,VALID,0,VALID,93.585,VALID,-0.0169808,VALID,19.4602,VALID,92,VALID,0,
2001-05-02, 03:28:00,VALID,916.665,VALID,0,VALID,93.7796,VALID,-0.0339617,VALID,19.4077,VALID,92,VALID,0,
2001-05-02, 03:29:00,VALID,916.678,VALID,0,VALID,93.9678,VALID,-0.0509425,VALID,19.4015,VALID,92,VALID,0,
2001-05-02, 03:30:00,VALID,916.685,VALID,0,VALID,94.1191,VALID,0,VALID,19.3819,VALID,92,VALID,0,
2001-05-02, 03:31:00,VALID,916.695,VALID,0,VALID,94.259,VALID,-0.0339617,VALID,19.3722,VALID,92,VALID,0,
2001-05-02, 03:32:00,VALID,916.706,VALID,0,VALID,94.2335,VALID,-0.0169808,VALID,19.3692,VALID,92,VALID,0,
2001-05-02, 03:33:00,VALID,916.705,VALID,0,VALID,94.2768,VALID,-0.0509425,VALID,19.3431,VALID,93,VALID,0,
2001-05-02, 03:34:00,VALID,916.708,VALID,0,VALID,94.2793,VALID,-0.0509425,VALID,19.3242,VALID,93,VALID,0,
2001-05-02, 03:35:00,VALID,916.706,VALID,0,VALID,94.3823,VALID,-0.0679233,VALID,19.318,VALID,93,VALID,0,
2001-05-02, 03:36:00,VALID,916.704,VALID,0,VALID,94.4217,VALID,-0.0339617,VALID,19.2981,VALID,93,VALID,0,
2001-05-02, 03:37:00,VALID,916.701,VALID,0,VALID,94.3696,VALID,-0.0679233,VALID,19.3078,VALID,93,VALID,0,